Regional Weather Roundup
Issued by NWS Cleveland, OH

Home | Current Version | Previous Version | Text Only | Print | Product List | Glossary Off
Versions: 1 2 3 4 5 6 7 8 9 10 11 12 13 14 15 16 17 18 19 20 21 22 23 24 25 26 27 28 29 30 31 32 33 34 35 36 37 38 39 40 41 42 43 44 45 46 47 48 49 50

708
ASUS41 KCLE 230912
RWRCLE
OHIO REGIONAL WEATHER ROUNDUP
NATIONAL WEATHER SERVICE WILMINGTON, OH
400 AM EST MON JAN 23 2017

NOTE: "FAIR" INDICATES FEW OR NO CLOUDS BELOW 12,000 FEET WITH NO
SIGNIFICANT WEATHER AND/OR OBSTRUCTIONS TO VISIBILITY.

OHZ001>008-015>018-024>027-034-035-043-044-231000-
   NORTHWEST OHIO

CITY           SKY/WX    TMP DP  RH WIND       PRES   REMARKS
DEFIANCE       CLOUDY    42  42 100 NE9       29.59R FOG
FINDLAY        FOG       39  37  92 NE18      29.54S VSB 1
TOLEDO EXPRESS FOG       41  41 100 NE9       29.59S VSB 1
TOLEDO EXEC    FOG       41  41 100 NE13G23   29.60S VSB 3/4
LIMA           CLOUDY    39  39 100 N13       29.53R FOG
$$

OHZ009>014-019>023-028>033-038-089-231000-
   NORTHEAST OHIO

CITY           SKY/WX    TMP DP  RH WIND       PRES   REMARKS
CLE-HOPKINS    LGT RAIN  41  38  89 NE7       29.57S FOG
CLE-LAKEFRONT  LGT RAIN  38  37  97 NE12      29.55S FOG
CUY CO. ARPT   NOT AVBL
LORAIN-ELYRIA  LGT RAIN  38  36  92 E12       29.55S FOG
ASHTABULA      FOG       39  39 100 NE5       29.59F VSB 1/2
AKRON-CANTON   LGT RAIN  50  46  86 E14       29.51S FOG
WOOSTER        LGT RAIN  49  47  93 E13       29.51S
MANSFIELD      LGT RAIN  45  44  97 NE9       29.50S FOG
YOUNGSTOWN     CLOUDY    50  45  83 E10       29.55F
$$

OHZ042-051>053-060>062-070>072-077>081-231000-
  SOUTHWEST OHIO

CITY           SKY/WX    TMP DP  RH WIND       PRES   REMARKS
CINC-COVINGTON CLOUDY    53  48  83 N17G25    29.41S
CINC-LUNKEN    CLOUDY    55  49  80 N9        29.42R
HAMILTON       CLOUDY    52  48  86 N9        29.44S
DAYTON         CLOUDY    45  43  93 N14       29.48R FOG
WRIGHT-PAT AFB CLOUDY    49  49 100 N13       29.45S
DAYTON GENERAL LGT RAIN  50  46  86 N12       29.43S
WILMINGTON     CLOUDY    50  48  93 N15       29.41R
$$

OHZ036-037-039>041-045>050-054>059-063>069-073>076-082>088-231000-
  CENTRAL AND SOUTHEAST OHIO

CITY           SKY/WX    TMP DP  RH WIND       PRES   REMARKS
COLUMBUS       LGT RAIN  54  48  80 NE12      29.43R
OSU AIRPORT    CLOUDY    50  50 100 N12       29.44S
BOLTON FIELD   CLOUDY    51  49  92 N14       29.44S
RICKENBACK AFB   N/A     53  49  87 NE12      29.41F
NEWARK         CLOUDY    53  48  83 NE9       29.43S
MARION         LGT RAIN  41  40  96 N13       29.50S FOG
LANCASTER      CLOUDY    55  48  77 NE9       29.42S
ZANESVILLE     CLOUDY    53  46  77 NE12      29.43F
NEW PHILLY     CLOUDY    50  49  96 E8        29.49S
$$




USA.gov is the U.S. government's official web portal to all federal, state and local government web resources and services.